Location: St. Andrews
(45.0670°N, 67.0330°W)
Time: 10:54:51
(UTC-03:00)

Amateur Radio Satellites - All Passes

Search period start: 30 June 2016 10:24
Search period end: 01 July 2016 10:24
Location: St. Andrews, 45.0670°N, 67.0330°W

Satellite Date Start Highest point End Downlink Frequencies (MHz)
Time Altitude Azimuth
FUNcube-1 30 Jun 10:26:35 10:30:54 41° 98° (E) 10:35:13 145.935
CANX-2 30 Jun 10:30:37 10:34:13 26° 293° (WNW) 10:37:46 2200.000
UWE-3 30 Jun 10:35:00 10:39:37 79° 102° (ESE) 10:44:18 435.000/436.395/437.385
DANDE 30 Jun 10:35:59 10:42:34 25° 295° (WNW) 10:48:33 436.750
PCSat 30 Jun 10:45:36 10:50:40 38° 48° (NE) 10:55:42 145.827
CUTE 1.7 + AOD 2 30 Jun 10:50:39 10:53:44 20° 296° (WNW) 10:56:48 437.475
SEEDS 30 Jun 10:50:56 10:54:24 25° 293° (WNW) 10:57:51 437.485
Cosmos 2491 30 Jun 10:51:14 10:58:00 24° 61° (ENE) 11:04:44 435.465 / 435.565
AUBIESAT-1 30 Jun 10:53:05 10:57:02 70° 108° (ESE) 11:01:16 437.475
NANOSAT C BR1 30 Jun 10:54:58 10:57:25 15° 62° (ENE) 10:59:52 145.865
TIGRISAT 30 Jun 10:58:23 11:02:42 87° 83° (E) 11:07:09 435.000
QB50P1 30 Jun 10:58:40 11:01:27 17° 63° (ENE) 11:04:14 145.935-145.965
POPSAT HIP 1 30 Jun 11:01:55 11:04:49 18° 64° (ENE) 11:07:44 437.405
UNISAT 6 30 Jun 11:04:11 11:08:29 77° 256° (WSW) 11:12:57 437.425
ISS 30 Jun 11:04:28 11:07:27 31° 346° (NNW) 11:10:26 145.825
HUMSAT D 30 Jun 11:07:27 11:11:11 28° 95° (E) 11:14:53 437.325/437.525
DUCHIFAT 1 30 Jun 11:13:42 11:16:55 22° 65° (ENE) 11:20:08 145.980
QB50P2 30 Jun 11:14:02 11:17:31 26° 67° (ENE) 11:21:01 145.880/145.840
BEESAT 3 30 Jun 11:14:07 11:18:02 56° 51° (NE) 11:21:55 437.485
POLYITAN 1 30 Jun 11:16:39 11:20:08 26° 67° (ENE) 11:23:40 437.675
DELFI C3 30 Jun 11:20:17 11:24:18 81° 103° (ESE) 11:28:16 145.870
PHONESAT 2.4 30 Jun 11:23:17 11:25:16 16° 202° (SSW) 11:27:14 2401.200-2431.200
AAUSAT CUBESAT 2 30 Jun 11:25:07 11:28:05 19° 296° (WNW) 11:31:02 437.432
CUBEBUG 2 30 Jun 11:28:39 11:32:20 24° 294° (WNW) 11:36:04 437.445
M-CUBED/EXP-1 PRIME 30 Jun 11:34:24 11:37:57 35° 295° (WNW) 11:41:45 437.505
RS-15 30 Jun 11:35:11 11:45:29 42° 108° (ESE) 11:56:17 29.354- 29.394
HO-68 30 Jun 11:38:45 11:44:08 24° 306° (NW) 11:49:32 435.675
ANTELSAT 30 Jun 11:44:38 11:48:27 30° 265° (W) 11:52:21 437.575/2403.000
ZACube-1 30 Jun 11:46:30 11:50:29 31° 292° (WNW) 11:54:30 437.345
Oscar 11 30 Jun 11:53:05 11:56:37 24° 294° (WNW) 12:00:07 145.826/435.025
BEESAT 2 30 Jun 11:55:42 11:59:44 83° 56° (ENE) 12:03:43 435.950
BUGSAT 1 30 Jun 12:01:20 12:04:52 31° 69° (ENE) 12:08:25 437.445
FUNcube-1 30 Jun 12:03:20 12:06:54 23° 295° (WNW) 12:10:29 145.935
CUBEBUG 1 30 Jun 12:07:31 12:10:00 15° 90° (E) 12:12:29 437.445
UWE-3 30 Jun 12:13:14 12:15:29 14° 300° (WNW) 12:17:45 435.000/436.395/437.385
JAS-2 30 Jun 12:14:18 12:21:03 39° 66° (ENE) 12:27:13 435.910
O/OREOS (USA 219) 30 Jun 12:19:02 12:23:16 39° 60° (ENE) 12:27:29 437.305
VELOX 1 30 Jun 12:20:13 12:23:18 19° 92° (E) 12:26:23 145.980
NANOSAT C BR1 30 Jun 12:28:36 12:32:43 56° 260° (W) 12:36:51 145.865
PCSat 30 Jun 12:29:05 12:34:04 37° 248° (WSW) 12:39:01 145.827
AUBIESAT-1 30 Jun 12:29:12 12:31:07 13° 303° (WNW) 12:33:05 437.475
QB50P1 30 Jun 12:32:49 12:36:52 48° 260° (W) 12:40:58 145.935-145.965
YUBILEINY 30 Jun 12:34:40 12:42:22 37° 84° (E) 12:50:05 435.215
POPSAT HIP 1 30 Jun 12:36:17 12:40:17 45° 261° (W) 12:44:21 437.405
ISS 30 Jun 12:41:42 12:44:30 26° 6° (N) 12:47:19 145.825
HUMSAT D 30 Jun 12:43:00 12:46:46 30° 292° (WNW) 12:50:32 437.325/437.525
Cosmos 2491 30 Jun 12:47:12 12:55:57 82° 264° (W) 13:04:40 435.465 / 435.565
DUCHIFAT 1 30 Jun 12:48:34 12:52:25 36° 263° (W) 12:56:18 145.980
SPROUT 30 Jun 12:48:43 12:51:30 17° 91° (E) 12:54:18 437.525
QB50P2 30 Jun 12:49:30 12:53:14 30° 264° (W) 12:56:59 145.880/145.840
UKube-1 30 Jun 12:50:29 12:53:57 23° 94° (E) 12:57:25 .
POLYITAN 1 30 Jun 12:52:10 12:55:51 30° 264° (W) 12:59:36 437.675
BEESAT 3 30 Jun 12:52:58 12:55:18 15° 249° (WSW) 12:57:37 437.485
AIST 2 30 Jun 12:53:59 12:57:29 25° 42° (NE) 13:00:57 435.215
DELFI C3 30 Jun 12:57:51 12:58:32 10° 300° (WNW) 12:59:13 145.870
AISAT 30 Jun 13:00:26 13:04:43 50° 100° (E) 13:09:00 437.250
ESTCUBE 1 30 Jun 13:04:15 13:08:48 85° 106° (ESE) 13:13:16 437.505/2401.250
50 SAT 30 Jun 13:04:17 13:07:58 60° 101° (E) 13:11:35 437.505
DX 1 30 Jun 13:13:33 13:17:48 50° 100° (E) 13:22:01 434.975-435.025
Oscar 19 30 Jun 13:31:34 13:36:30 49° 70° (ENE) 13:41:27 437.125/150
BEESAT 2 30 Jun 13:36:28 13:36:55 10° 252° (WSW) 13:37:22 435.950
BUGSAT 1 30 Jun 13:37:05 13:40:17 23° 265° (W) 13:43:31 437.445
CUBEBUG 1 30 Jun 13:42:25 13:46:39 55° 287° (WNW) 13:50:52 437.445
RS-15 30 Jun 13:45:51 13:57:20 67° 312° (NW) 14:09:29 29.354- 29.394
AO-7 30 Jun 13:49:27 13:54:25 18° 43° (NE) 13:59:24 29.400- 29.500
VELOX 1 30 Jun 13:55:48 14:00:01 45° 289° (WNW) 14:04:12 145.980
JAS-2 30 Jun 13:58:43 14:05:57 48° 261° (W) 14:12:35 435.910
O/OREOS (USA 219) 30 Jun 13:58:54 14:02:26 23° 257° (WSW) 14:05:56 437.305
ITAMSAT 1 30 Jun 14:00:26 14:03:45 17° 58° (ENE) 14:07:06 435.822/435.867
TISAT 1 30 Jun 14:01:11 14:04:41 25° 95° (E) 14:08:12 437.305
Gurwin Techsat 1B 30 Jun 14:04:23 14:09:25 45° 68° (ENE) 14:14:28 435.225
ISS 30 Jun 14:18:08 14:21:23 61° 26° (NNE) 14:24:38 145.825
Cosmos 2504 30 Jun 14:21:58 14:29:52 54° 89° (E) 14:38:17 435.465 / 435.565
SPROUT 30 Jun 14:23:36 14:27:44 48° 288° (WNW) 14:31:51 437.525
UKube-1 30 Jun 14:26:10 14:30:05 35° 292° (WNW) 14:33:59 .
YUBILEINY 30 Jun 14:30:21 14:38:49 54° 286° (WNW) 14:47:25 435.215
AIST 2 30 Jun 14:32:10 14:36:08 43° 241° (WSW) 14:40:04 435.215
AISAT 30 Jun 14:37:51 14:40:50 18° 297° (WNW) 14:43:51 437.250
50 SAT 30 Jun 14:39:51 14:41:09 12° 298° (WNW) 14:42:25 437.505
ESTCUBE 1 30 Jun 14:43:10 14:44:55 12° 301° (WNW) 14:46:40 437.505/2401.250
Cosmos 2491 30 Jun 14:46:12 14:51:21 17° 285° (WNW) 14:56:31 435.465 / 435.565
DX 1 30 Jun 14:50:42 14:53:37 18° 298° (WNW) 14:56:32 434.975-435.025
Oscar 19 30 Jun 15:12:06 15:16:06 22° 267° (W) 15:20:06 437.125/150
SWISSCUBE 30 Jun 15:25:23 15:29:56 41° 98° (E) 15:34:27 437.505
TISAT 1 30 Jun 15:36:38 15:40:21 31° 292° (WNW) 15:44:04 437.305
ITAMSAT 1 30 Jun 15:37:25 15:42:38 75° 257° (WSW) 15:47:53 435.822/435.867
AO-7 30 Jun 15:37:25 15:45:37 64° 65° (ENE) 15:53:51 29.400- 29.500
Gurwin Techsat 1B 30 Jun 15:45:08 15:49:32 26° 266° (W) 15:53:59 435.225
BEESAT 30 Jun 15:50:17 15:55:05 66° 102° (ESE) 15:59:50 436.000
ITUPSAT 1 30 Jun 15:52:43 15:57:33 68° 102° (ESE) 16:02:19 437.325
ISS 30 Jun 15:55:01 15:57:36 21° 223° (SW) 16:00:09 145.825
RS-15 30 Jun 16:02:18 16:12:39 33° 343° (NNW) 16:23:23 29.354- 29.394
KKS-1 30 Jun 16:07:21 16:09:13 12° 89° (E) 16:11:05 437.445
SO-50 30 Jun 16:08:18 16:13:03 53° 120° (ESE) 16:17:48 436.795
MOZHAYETS 4 30 Jun 16:12:20 16:14:48 14° 89° (E) 16:17:14
Cosmos 2504 30 Jun 16:16:03 16:23:35 37° 292° (WNW) 16:31:36 435.465 / 435.565
HORYU 2 30 Jun 16:31:30 16:35:06 25° 65° (ENE) 16:38:44 437.375
STARS 30 Jun 16:33:55 16:35:34 12° 89° (E) 16:37:12 437.465
YUBILEINY 30 Jun 16:35:08 16:38:08 12° 311° (NW) 16:41:08 435.215
CUTE-I 30 Jun 16:59:10 16:59:35 10° 52° (NE) 17:00:00 437.470
SWISSCUBE 30 Jun 17:03:38 17:07:31 25° 296° (WNW) 17:11:22 437.505
NOAA 15 30 Jun 17:16:37 17:20:18 19° 60° (ENE) 17:23:59 137.62
AIST 1 30 Jun 17:26:34 17:30:45 50° 94° (E) 17:34:55
BEESAT 30 Jun 17:29:19 17:32:21 17° 300° (WNW) 17:35:22 436.000
AO-7 30 Jun 17:31:38 17:38:51 32° 265° (W) 17:46:10 29.400- 29.500
ITUPSAT 1 30 Jun 17:31:51 17:34:50 17° 300° (WNW) 17:37:48 437.325
KKS-1 30 Jun 17:41:50 17:46:17 71° 286° (WNW) 17:50:42 437.445
BRITE-PL 30 Jun 17:42:56 17:46:55 26° 67° (ENE) 17:50:41 437.365/2234.400
CUBESAT XI-V 30 Jun 17:45:26 17:48:14 16° 90° (E) 17:51:01 437.345
MOZHAYETS 4 30 Jun 17:47:48 17:52:26 66° 286° (WNW) 17:57:00
SO-50 30 Jun 17:49:37 17:53:49 28° 319° (NW) 17:57:59 436.795
Cubesat XI-IV 30 Jun 18:00:21 18:05:03 32° 65° (ENE) 18:09:47 437.490
GOMX 1 30 Jun 18:06:15 18:09:23 19° 65° (ENE) 18:12:25 467.674
HORYU 2 30 Jun 18:07:25 18:11:29 36° 262° (W) 18:15:37 437.375
STARS 30 Jun 18:08:01 18:12:25 73° 287° (WNW) 18:16:49 437.465
LilacSat-2 30 Jun 18:11:00 18:14:12 27° 69° (ENE) 18:17:28 437.200
NOAA 18 30 Jun 18:12:01 18:17:12 46° 68° (ENE) 18:22:27 137.9125
RS-15 30 Jun 18:19:12 18:29:53 33° 18° (NNE) 18:40:42 29.354- 29.394
GONETS M04 30 Jun 18:32:09 18:40:18 47° 88° (E) 18:48:27
CUTE-I 30 Jun 18:33:18 18:38:33 61° 71° (ENE) 18:43:52 437.470
HO-68 30 Jun 18:36:18 18:40:38 17° 50° (NE) 18:44:59 435.675
CUSAT 1 30 Jun 18:48:21 18:51:54 50° 74° (ENE) 18:54:46 437.405
Cosmos 2499 30 Jun 18:51:56 18:59:42 43° 86° (E) 19:07:51 435.465 / 435.565
NOAA 15 30 Jun 18:54:18 18:59:34 66° 258° (WSW) 19:04:51 137.62
DOVE 4 30 Jun 18:54:49 18:58:20 26° 67° (ENE) 19:01:47 437.250
AIST 1 30 Jun 19:06:01 19:08:40 16° 292° (WNW) 19:11:20
BRITE-PL 30 Jun 19:20:41 19:25:17 38° 262° (W) 19:29:35 437.365/2234.400
CUBESAT XI-V 30 Jun 19:21:28 19:26:01 58° 287° (WNW) 19:30:32 437.345
DANDE 30 Jun 19:31:17 19:36:12 63° 76° (ENE) 19:39:50 436.750
CINEMA 3 30 Jun 19:34:28 19:37:31 20° 65° (ENE) 19:40:35 145.822/145.860
Cubesat XI-IV 30 Jun 19:40:05 19:45:02 37° 263° (W) 19:50:01 437.490
GOMX 1 30 Jun 19:42:53 19:47:14 45° 261° (W) 19:51:23 467.674
COMPASS 1 30 Jun 19:44:19 19:46:07 13° 61° (ENE) 19:47:55 437.405
LilacSat-2 30 Jun 19:45:26 19:48:31 23° 266° (W) 19:51:37 437.200
CANX-2 30 Jun 19:49:14 19:52:56 29° 68° (ENE) 19:56:40 2200.000
NOAA 18 30 Jun 19:53:28 19:58:03 27° 265° (W) 20:02:41 137.9125
STRAND 1 30 Jun 19:59:05 20:03:23 26° 94° (E) 20:07:38 437.568
CUTE 1.7 + AOD 2 30 Jun 20:08:25 20:12:25 40° 70° (ENE) 20:16:27 437.475
SEEDS 30 Jun 20:08:33 20:12:14 29° 68° (ENE) 20:15:58 437.485
AUBIESAT-1 30 Jun 20:10:53 20:11:06 10° 55° (NE) 20:11:18 437.475
CUTE-I 30 Jun 20:15:14 20:19:01 19° 269° (W) 20:22:50 437.470
HO-68 30 Jun 20:20:04 20:27:12 74° 70° (ENE) 20:34:22 435.675
GONETS M04 30 Jun 20:29:05 20:37:12 42° 289° (WNW) 20:45:22
DOVE 4 30 Jun 20:32:14 20:35:59 29° 264° (W) 20:39:40 437.250
RS-15 30 Jun 20:32:52 20:45:11 69° 48° (NE) 20:57:27 29.354- 29.394
AAUSAT CUBESAT 2 30 Jun 20:40:51 20:44:42 36° 70° (ENE) 20:48:34 437.432
Cosmos 2499 30 Jun 20:44:40 20:52:45 48° 288° (WNW) 21:01:16 435.465 / 435.565
M-CUBED/EXP-1 PRIME 30 Jun 20:49:13 20:52:09 32° 65° (ENE) 20:55:10 437.505
CUBEBUG 2 30 Jun 20:51:45 20:55:39 40° 70° (ENE) 20:59:42 437.445
ZACube-1 30 Jun 21:08:06 21:11:44 28° 68° (ENE) 21:15:28 437.345
CINEMA 3 30 Jun 21:10:33 21:14:26 38° 263° (W) 21:18:22 145.822/145.860
Oscar 11 30 Jun 21:13:07 21:17:04 35° 69° (ENE) 21:21:02 145.826/435.025
COMPASS 1 30 Jun 21:16:53 21:21:06 73° 258° (WSW) 21:25:20 437.405
DANDE 30 Jun 21:17:06 21:17:48 10° 283° (WNW) 21:18:29 436.750
PRISM 30 Jun 21:22:31 21:25:52 24° 95° (E) 21:29:10 437.425
FUNcube-1 30 Jun 21:24:00 21:27:56 38° 70° (ENE) 21:31:58 145.935
CANX-2 30 Jun 21:25:03 21:28:45 28° 265° (W) 21:32:30 2200.000
UWE-3 30 Jun 21:33:49 21:38:01 79° 75° (ENE) 21:42:22 435.000/436.395/437.385
STRAND 1 30 Jun 21:37:50 21:42:42 43° 292° (WNW) 21:47:33 437.568
AO-85 30 Jun 21:39:03 21:44:16 51° 119° (ESE) 21:49:21 145.980
AUBIESAT-1 30 Jun 21:41:51 21:45:06 61° 253° (WSW) 21:48:27 437.475
SEEDS 30 Jun 21:44:16 21:47:55 27° 265° (W) 21:51:35 437.485
CUTE 1.7 + AOD 2 30 Jun 21:45:13 21:48:25 20° 268° (W) 21:51:39 437.475
HUMSAT D 30 Jun 22:00:44 22:04:11 25° 66° (ENE) 22:07:40 437.325/437.525
DELFI C3 30 Jun 22:07:41 22:11:40 59° 73° (ENE) 22:15:39 145.870
HO-68 30 Jun 22:10:10 22:15:35 23° 269° (W) 22:21:02 435.675
AAUSAT CUBESAT 2 30 Jun 22:17:04 22:20:17 21° 267° (W) 22:23:32 437.432
M-CUBED/EXP-1 PRIME 30 Jun 22:25:04 22:26:55 14° 262° (W) 22:28:47 437.505
CUBEBUG 2 30 Jun 22:29:26 22:32:30 19° 268° (W) 22:35:37 437.445
ESTCUBE 1 30 Jun 22:31:50 22:33:44 13° 59° (ENE) 22:35:39 437.505/2401.250
YUBILEINY 30 Jun 22:41:57 22:48:14 21° 59° (ENE) 22:54:30 435.215
ZACube-1 30 Jun 22:44:20 22:48:00 28° 265° (W) 22:51:45 437.345
RS-15 30 Jun 22:45:59 22:57:08 43° 252° (WSW) 23:08:11 29.354- 29.394
Cosmos 2499 30 Jun 22:46:39 22:48:37 11° 313° (NW) 22:50:37 435.465 / 435.565
TIGRISAT 30 Jun 22:48:43 22:51:46 17° 91° (E) 22:54:48 435.000
Oscar 11 30 Jun 22:49:45 22:53:16 24° 266° (W) 22:56:49 145.826/435.025
UNISAT 6 30 Jun 22:54:21 22:57:50 20° 92° (E) 23:01:19 437.425
PRISM 30 Jun 22:57:35 23:01:11 31° 292° (WNW) 23:04:46 437.425
SO-50 30 Jun 22:58:22 23:01:30 17° 32° (NNE) 23:04:33 436.795
FUNcube-1 30 Jun 23:01:09 23:04:21 21° 268° (W) 23:07:37 145.935
CUBEBUG 1 30 Jun 23:05:31 23:08:21 17° 63° (ENE) 23:11:11 437.445
UWE-3 30 Jun 23:15:01 23:15:06 10° 273° (W) 23:15:12 435.000/436.395/437.385
VELOX 1 30 Jun 23:19:25 23:22:49 22° 64° (ENE) 23:26:13 145.980
AO-85 30 Jun 23:20:12 23:25:00 32° 317° (NW) 23:29:36 145.980
ANTELSAT 30 Jun 23:33:19 23:37:51 48° 99° (E) 23:42:24 437.575/2403.000
HUMSAT D 30 Jun 23:35:56 23:39:41 32° 264° (W) 23:43:30 437.325/437.525
50 SAT 30 Jun 23:43:54 23:47:20 36° 71° (ENE) 23:50:47 437.505
SPROUT 30 Jun 23:44:30 23:47:19 17° 63° (ENE) 23:50:08 437.525
DELFI C3 30 Jun 23:45:12 23:46:54 12° 271° (W) 23:48:36 145.870
UKube-1 30 Jun 23:46:52 23:50:28 26° 66° (ENE) 23:54:05 .
Cosmos 2491 30 Jun 23:56:31 00:03:05 25° 79° (E) 00:09:39 435.465 / 435.565
AISAT 30 Jun 23:59:28 00:03:46 57° 72° (ENE) 00:08:06 437.250
ESTCUBE 1 01 Jul 00:05:20 00:09:53 84° 254° (WSW) 00:14:27 437.505/2401.250
DX 1 01 Jul 00:10:42 00:14:57 56° 72° (ENE) 00:19:13 434.975-435.025
NANOSAT C BR1 01 Jul 00:11:35 00:14:44 20° 93° (E) 00:17:50 145.865
Cosmos 2504 01 Jul 00:12:30 00:19:28 25° 61° (ENE) 00:26:12 435.465 / 435.565
QB50P1 01 Jul 00:15:50 00:19:15 23° 94° (E) 00:22:39 145.935-145.965
POPSAT HIP 1 01 Jul 00:19:13 00:22:44 24° 95° (E) 00:26:14 437.405
TIGRISAT 01 Jul 00:24:13 00:28:47 57° 288° (WNW) 00:33:23 435.000
UNISAT 6 01 Jul 00:30:17 00:34:46 47° 289° (WNW) 00:39:16 437.425
DUCHIFAT 1 01 Jul 00:30:30 00:34:13 29° 96° (E) 00:37:55 145.980
QB50P2 01 Jul 00:31:54 00:35:51 35° 97° (E) 00:39:46 145.880/145.840
POLYITAN 1 01 Jul 00:34:30 00:38:29 36° 97° (E) 00:42:27 437.675
YUBILEINY 01 Jul 00:37:34 00:46:29 86° 82° (E) 00:55:20 435.215
SO-50 01 Jul 00:38:02 00:42:45 81° 54° (NE) 00:47:18 436.795
CUBEBUG 1 01 Jul 00:40:01 00:44:15 52° 260° (W) 00:48:31 437.445
TISAT 1 01 Jul 00:54:51 00:58:15 25° 66° (ENE) 01:01:40 437.305
VELOX 1 01 Jul 00:54:55 00:59:03 40° 261° (W) 01:03:13 145.980
AO-85 01 Jul 01:06:07 01:07:02 10° 339° (NNW) 01:07:58 145.980
JAS-2 01 Jul 01:07:38 01:11:38 20° 89° (E) 01:15:27 435.910
ANTELSAT 01 Jul 01:10:45 01:14:15 21° 296° (WNW) 01:17:45 437.575/2403.000
BUGSAT 1 01 Jul 01:15:45 01:19:39 40° 99° (E) 01:23:33 437.445
50 SAT 01 Jul 01:18:40 01:21:09 17° 267° (W) 01:23:38 437.505
SPROUT 01 Jul 01:18:47 01:22:54 49° 260° (W) 01:27:04 437.525
UKube-1 01 Jul 01:22:34 01:26:25 31° 263° (W) 01:30:17 .
BEESAT 01 Jul 01:23:54 01:26:07 13° 58° (ENE) 01:28:19 436.000
ITUPSAT 1 01 Jul 01:26:27 01:28:50 14° 58° (ENE) 01:31:14 437.325
PCSat 01 Jul 01:30:32 01:34:29 21° 107° (ESE) 01:38:27 145.827
AISAT 01 Jul 01:38:05 01:40:37 15° 269° (W) 01:43:09 437.250
Oscar 19 01 Jul 01:42:28 01:45:15 14° 89° (E) 01:48:01 437.125/150
NANOSAT C BR1 01 Jul 01:46:37 01:50:37 40° 290° (WNW) 01:54:36 145.865
DX 1 01 Jul 01:49:02 01:51:30 15° 269° (W) 01:53:59 434.975-435.025
Cosmos 2491 01 Jul 01:50:12 01:58:58 77° 279° (W) 02:07:46 435.465 / 435.565
QB50P1 01 Jul 01:51:13 01:55:06 35° 291° (WNW) 01:58:59 145.935-145.965
POPSAT HIP 1 01 Jul 01:54:44 01:58:34 33° 291° (WNW) 02:02:23 437.405
Cosmos 2504 01 Jul 02:05:05 02:14:02 84° 263° (W) 02:22:33 435.465 / 435.565
DUCHIFAT 1 01 Jul 02:06:14 02:09:50 28° 293° (WNW) 02:13:27 145.980
QB50P2 01 Jul 02:08:04 02:11:28 23° 294° (WNW) 02:14:52 145.880/145.840
POLYITAN 1 01 Jul 02:10:43 02:14:06 23° 294° (WNW) 02:17:29 437.675
Gurwin Techsat 1B 01 Jul 02:19:51 02:22:48 15° 89° (E) 02:25:45 435.225
SO-50 01 Jul 02:20:23 02:22:32 13° 252° (WSW) 02:24:40 436.795
TISAT 1 01 Jul 02:30:05 02:33:47 31° 263° (W) 02:37:32 437.305
SWISSCUBE 01 Jul 02:33:30 02:38:13 60° 72° (ENE) 02:42:58 437.505
O/OREOS (USA 219) 01 Jul 02:33:36 02:37:30 30° 105° (ESE) 02:41:26 437.305
YUBILEINY 01 Jul 02:35:57 02:42:07 22° 283° (WNW) 02:48:17 435.215
BEESAT 3 01 Jul 02:43:41 02:47:28 51° 121° (ESE) 02:51:19 437.485
JAS-2 01 Jul 02:51:46 02:57:17 55° 290° (WNW) 03:02:22 435.910
BUGSAT 1 01 Jul 02:51:47 02:54:46 20° 295° (WNW) 02:57:46 437.445
BEESAT 01 Jul 02:58:24 03:03:11 87° 253° (WSW) 03:08:02 436.000
ITUPSAT 1 01 Jul 03:01:12 03:06:00 84° 256° (WSW) 03:10:51 437.325
KKS-1 01 Jul 03:07:10 03:09:51 16° 61° (ENE) 03:12:32 437.445
PCSat 01 Jul 03:12:01 03:17:24 63° 305° (NW) 03:22:49 145.827
MOZHAYETS 4 01 Jul 03:16:00 03:19:08 18° 62° (ENE) 03:22:17
Oscar 19 01 Jul 03:20:00 03:25:08 75° 286° (WNW) 03:30:15 437.125/150
BEESAT 2 01 Jul 03:26:38 03:30:35 80° 124° (ESE) 03:34:35 435.950
STARS 01 Jul 03:32:21 03:34:47 15° 61° (ENE) 03:37:15 437.465
AIST 1 01 Jul 03:32:22 03:35:03 16° 68° (ENE) 03:37:42
AO-7 01 Jul 03:38:39 03:43:32 16° 87° (E) 03:48:23 29.400- 29.500
ITAMSAT 1 01 Jul 03:48:30 03:53:14 33° 96° (E) 03:57:55 435.822/435.867
Cosmos 2491 01 Jul 03:51:53 03:57:29 18° 303° (WNW) 04:03:06 435.465 / 435.565
Gurwin Techsat 1B 01 Jul 03:58:01 04:03:21 78° 287° (WNW) 04:08:40 435.225
Cosmos 2504 01 Jul 04:00:24 04:05:59 19° 285° (WNW) 04:11:29 435.465 / 435.565
O/OREOS (USA 219) 01 Jul 04:12:54 04:16:52 30° 303° (WNW) 04:20:51 437.305
SWISSCUBE 01 Jul 04:13:23 04:16:25 17° 269° (W) 04:19:27 437.505
BEESAT 3 01 Jul 04:22:25 04:25:26 21° 319° (NW) 04:28:28 437.485
AO-85 01 Jul 04:29:59 04:32:44 15° 30° (NNE) 04:35:20 145.980
AIST 2 01 Jul 04:31:53 04:35:07 23° 114° (ESE) 04:38:23 435.215
GONETS M04 01 Jul 04:39:45 04:46:49 26° 63° (ENE) 04:53:51
BEESAT 01 Jul 04:41:15 04:41:41 10° 273° (W) 04:42:07 436.000
Cosmos 2499 01 Jul 04:41:27 04:47:17 19° 56° (ENE) 04:52:53 435.465 / 435.565
KKS-1 01 Jul 04:41:36 04:45:57 60° 259° (WSW) 04:50:21 437.445
CUBESAT XI-V 01 Jul 04:50:28 04:53:56 21° 64° (ENE) 04:57:24 437.345
MOZHAYETS 4 01 Jul 04:51:20 04:55:52 56° 260° (W) 05:00:28
PCSat 01 Jul 04:58:44 05:01:55 15° 327° (NNW) 05:05:06 145.827
Oscar 19 01 Jul 05:01:51 05:03:35 12° 305° (NW) 05:05:19 437.125/150
STARS 01 Jul 05:06:20 05:10:39 64° 259° (WSW) 05:15:00 437.465
BEESAT 2 01 Jul 05:06:27 05:08:57 16° 323° (NW) 05:11:28 435.950
AIST 1 01 Jul 05:08:51 05:12:57 48° 266° (W) 05:17:04
ITAMSAT 1 01 Jul 05:27:58 05:32:40 35° 294° (WNW) 05:37:22 435.822/435.867
AO-7 01 Jul 05:29:11 05:37:38 78° 107° (ESE) 05:46:00 29.400- 29.500
Gurwin Techsat 1B 01 Jul 05:40:12 05:42:26 13° 305° (NW) 05:44:39 435.225
HORYU 2 01 Jul 05:55:57 06:00:07 35° 98° (E) 06:04:14 437.375
AIST 2 01 Jul 06:09:28 06:13:23 41° 312° (NW) 06:17:20 435.215
AO-85 01 Jul 06:09:32 06:14:09 69° 52° (NE) 06:18:20 145.980
CUSAT 1 01 Jul 06:12:54 06:15:06 12° 83° (E) 06:17:11 437.405
CUBESAT XI-V 01 Jul 06:26:27 06:30:59 49° 261° (W) 06:35:33 437.345
NOAA 18 01 Jul 06:33:07 06:36:27 16° 90° (E) 06:39:48 137.9125
Cosmos 2499 01 Jul 06:33:14 06:42:05 78° 80° (E) 06:50:21 435.465 / 435.565
GONETS M04 01 Jul 06:35:52 06:44:36 77° 265° (W) 06:53:19
CUTE-I 01 Jul 06:49:06 06:53:06 21° 92° (E) 06:57:02 437.470
DANDE 01 Jul 06:58:26 07:03:13 17° 81° (E) 07:07:43 436.750
PHONESAT 2.4 01 Jul 07:06:33 07:08:59 22° 163° (SSE) 07:11:26 2401.200-2431.200
NOAA 15 01 Jul 07:07:31 07:12:26 39° 98° (E) 07:17:19 137.62
LilacSat-2 01 Jul 07:16:06 07:19:35 31° 96° (E) 07:23:04 437.200
STRAND 1 01 Jul 07:16:37 07:21:30 45° 69° (ENE) 07:26:25 437.568
BRITE-PL 01 Jul 07:22:48 07:26:52 53° 100° (E) 07:31:00 437.365/2234.400
AO-7 01 Jul 07:22:49 07:29:38 29° 308° (NW) 07:36:26 29.400- 29.500
HORYU 2 01 Jul 07:32:48 07:36:31 26° 295° (WNW) 07:40:12 437.375
GOMX 1 01 Jul 07:41:53 07:45:52 38° 98° (E) 07:50:00 467.674
CUSAT 1 01 Jul 07:48:59 07:56:27 66° 97° (E) 08:02:33 437.405
HO-68 01 Jul 07:49:18 07:51:10 11° 84° (E) 07:53:01 435.675
AO-85 01 Jul 07:51:39 07:53:54 14° 253° (WSW) 07:56:04 145.980
Cubesat XI-IV 01 Jul 07:54:39 08:00:04 75° 104° (ESE) 08:05:26 437.490
NOAA 18 01 Jul 08:12:09 08:17:43 77° 288° (WNW) 08:23:16 137.9125
PRISM 01 Jul 08:13:52 08:17:12 24° 66° (ENE) 08:20:33 437.425
DOVE 4 01 Jul 08:27:31 08:31:50 55° 101° (E) 08:36:21 437.250
Cosmos 2499 01 Jul 08:27:38 08:34:12 25° 282° (WNW) 08:40:29 435.465 / 435.565
CUTE-I 01 Jul 08:28:13 08:33:31 58° 289° (WNW) 08:38:45 437.470
ISS 01 Jul 08:35:04 08:38:06 37° 142° (SE) 08:41:10 145.825
GONETS M04 01 Jul 08:35:11 08:39:51 16° 286° (WNW) 08:44:33
DANDE 01 Jul 08:36:47 08:45:10 76° 98° (E) 08:52:34 436.750
PHONESAT 2.4 01 Jul 08:42:22 08:45:12 34° 180° (S) 08:48:02 2401.200-2431.200
NOAA 15 01 Jul 08:47:33 08:52:05 30° 296° (WNW) 08:56:35 137.62
LilacSat-2 01 Jul 08:50:42 08:53:44 22° 293° (WNW) 08:56:46 437.200
STRAND 1 01 Jul 08:56:43 09:00:53 25° 267° (W) 09:05:05 437.568
COMPASS 1 01 Jul 08:58:58 09:01:31 16° 90° (E) 09:04:03 437.405
CINEMA 3 01 Jul 09:02:08 09:06:29 40° 98° (E) 09:10:59 145.822/145.860
BRITE-PL 01 Jul 09:02:37 09:05:00 15° 297° (WNW) 09:07:23 437.365/2234.400
CANX-2 01 Jul 09:07:25 09:11:32 42° 98° (E) 09:15:35 2200.000
GOMX 1 01 Jul 09:20:36 09:23:47 21° 294° (WNW) 09:27:03 467.674
UWE-3 01 Jul 09:22:26 09:25:09 15° 90° (E) 09:27:51 435.000/436.395/437.385
BEESAT 3 01 Jul 09:23:13 09:24:25 11° 31° (NNE) 09:25:36 437.485
SEEDS 01 Jul 09:25:30 09:29:32 41° 98° (E) 09:33:32 437.485
CUTE 1.7 + AOD 2 01 Jul 09:26:45 09:31:01 60° 101° (E) 09:35:13 437.475
CUSAT 1 01 Jul 09:32:53 09:38:46 26° 291° (WNW) 09:43:49 437.405
HO-68 01 Jul 09:33:04 09:40:15 65° 103° (ESE) 09:47:23 435.675
Cubesat XI-IV 01 Jul 09:36:01 09:39:31 18° 302° (WNW) 09:43:01 437.490
PRISM 01 Jul 09:48:38 09:52:23 32° 263° (W) 09:56:08 437.425
TIGRISAT 01 Jul 09:49:41 09:52:40 18° 62° (ENE) 09:55:41 435.000
NOAA 18 01 Jul 09:54:53 09:57:29 14° 306° (NW) 10:00:05 137.9125
UNISAT 6 01 Jul 09:55:24 09:58:44 22° 64° (ENE) 10:02:08 437.425
AAUSAT CUBESAT 2 01 Jul 09:56:10 10:00:15 51° 99° (E) 10:04:17 437.432
M-CUBED/EXP-1 PRIME 01 Jul 09:59:54 10:03:01 21° 101° (E) 10:06:17 437.505
Cosmos 2491 01 Jul 10:03:42 10:07:42 14° 52° (NE) 10:11:42 435.465 / 435.565
BEESAT 2 01 Jul 10:06:08 10:08:28 15° 36° (NE) 10:10:47 435.950
DOVE 4 01 Jul 10:06:25 10:09:11 17° 296° (WNW) 10:12:03 437.250
ISS 01 Jul 10:11:25 10:14:32 41° 340° (NNW) 10:17:41 145.825
PCSat 01 Jul 10:14:55 10:19:41 30° 45° (NE) 10:24:25 145.827
PHONESAT 2.4 01 Jul 10:18:56 10:21:25 22° 196° (SSW) 10:23:53 2401.200-2431.200
